IBE72V LEMD-EKCH

Flight info

Callsign IBE72V
Flight time 2h 31m
Altitude 34000
Route RBO N867 DGO/N0490F400 L176 LUSEM DCT LULUT DCT ADABI DCT BOKNO UN858 VANAD UN874 ARSAF/N0491F430 DCT EGOZE DCT CMB DCT VEKIN DCT ADUTO/N0485F410 DCT VICOT DCT DOSUR P729 TUDLO
Aircraft A359/H-SDE2E3GHIJ3J4J5LM1ORWXY/LB1D1

Departure

Time 2026-05-05 16:53
Airport Adolfo Suárez Madrid–Barajas Airport (LEMD)

Arrival

Time 2026-05-05 19:24
Airport Copenhagen Kastrup Airport (EKCH)
Time Latitude Longitude Altitude Speed Heading
2026-05-05 16:23 40.49124 -3.58721 1993 ft 0 kts 269°
2026-05-05 16:36 40.49124 -3.58714 1996 ft 0 kts 269°
2026-05-05 16:42 40.49124 -3.58725 1997 ft 4 kts 269°
2026-05-05 16:42 40.49121 -3.58795 1997 ft 11 kts 259°
2026-05-05 16:43 40.49071 -3.58887 1997 ft 15 kts 211°
2026-05-05 16:43 40.48951 -3.58900 1997 ft 21 kts 180°
2026-05-05 16:43 40.48796 -3.58888 1997 ft 21 kts 155°
2026-05-05 16:43 40.48762 -3.58720 1999 ft 20 kts 89°
2026-05-05 16:44 40.48762 -3.58532 2000 ft 21 kts 90°
2026-05-05 16:44 40.48762 -3.58334 2002 ft 22 kts 89°
2026-05-05 16:44 40.48771 -3.58129 2003 ft 23 kts 71°
2026-05-05 16:44 40.48858 -3.57968 2002 ft 22 kts 81°
2026-05-05 16:45 40.48862 -3.57758 2002 ft 24 kts 89°
2026-05-05 16:45 40.48861 -3.57534 2001 ft 25 kts 89°
2026-05-05 16:45 40.48861 -3.57292 1999 ft 28 kts 90°
2026-05-05 16:45 40.48862 -3.57028 1995 ft 30 kts 90°
2026-05-05 16:46 40.48864 -3.56734 1987 ft 34 kts 89°
2026-05-05 16:46 40.48865 -3.56415 1976 ft 37 kts 90°
2026-05-05 16:46 40.48910 -3.56216 1967 ft 19 kts 34°
2026-05-05 16:46 40.48985 -3.56213 1966 ft 8 kts 345°
2026-05-05 16:47 40.49053 -3.56237 1966 ft 12 kts 345°
2026-05-05 16:47 40.49147 -3.56248 1966 ft 17 kts 359°
2026-05-05 16:47 40.49289 -3.56248 1964 ft 24 kts 359°
2026-05-05 16:47 40.49479 -3.56250 1962 ft 30 kts 359°
2026-05-05 16:48 40.49699 -3.56252 1962 ft 31 kts 358°
2026-05-05 16:48 40.49875 -3.56254 1961 ft 15 kts
2026-05-05 16:48 40.49937 -3.56172 1959 ft 15 kts 84°
2026-05-05 16:48 40.49947 -3.56075 1958 ft 7 kts 82°
2026-05-05 16:49 40.49954 -3.56038 1958 ft 1 kts 71°
2026-05-05 16:49 40.49961 -3.56014 1958 ft 5 kts 68°
2026-05-05 16:49 40.50004 -3.55952 1957 ft 13 kts 33°
2026-05-05 16:49 40.50089 -3.55919 1955 ft 11 kts 359°
2026-05-05 16:50 40.50095 -3.55919 1955 ft 0 kts 359°
2026-05-05 16:50 40.50097 -3.55919 1955 ft 0 kts 359°
2026-05-05 16:52 40.50104 -3.55919 1955 ft 6 kts 359°
2026-05-05 16:52 40.50367 -3.55923 1955 ft 74 kts
2026-05-05 16:52 40.51113 -3.55925 1949 ft 138 kts 359°
2026-05-05 16:52 40.52250 -3.55904 2066 ft 179 kts 360°
2026-05-05 16:53 40.53485 -3.55904 2760 ft 175 kts 350°
2026-05-05 16:53 40.54740 -3.56103 3413 ft 189 kts 348°
2026-05-05 16:53 40.56120 -3.55926 3950 ft 213 kts 14°
2026-05-05 16:53 40.57515 -3.55142 4593 ft 222 kts 20°
2026-05-05 16:54 40.58940 -3.54322 5225 ft 226 kts 22°
2026-05-05 16:54 40.60267 -3.53125 5745 ft 240 kts 36°
2026-05-05 16:54 40.61580 -3.51619 6085 ft 260 kts 39°
2026-05-05 16:54 40.62975 -3.49982 6480 ft 276 kts 39°
2026-05-05 16:55 40.64436 -3.48298 7084 ft 281 kts 38°
2026-05-05 16:55 40.65932 -3.46596 7745 ft 286 kts 38°
2026-05-05 16:55 40.67458 -3.44873 8429 ft 290 kts 38°
2026-05-05 16:55 40.69006 -3.43133 9108 ft 295 kts 38°
2026-05-05 16:56 40.70559 -3.41390 9794 ft 299 kts 38°
2026-05-05 16:56 40.72160 -3.39595 10310 ft 309 kts 38°
2026-05-05 16:56 40.73843 -3.37711 10616 ft 325 kts 38°
2026-05-05 16:56 40.75631 -3.35705 10923 ft 341 kts 39°
2026-05-05 16:57 40.77530 -3.33715 11203 ft 354 kts 32°
2026-05-05 16:57 40.79691 -3.32082 11632 ft 361 kts 26°
2026-05-05 16:57 40.81966 -3.30595 12145 ft 366 kts 23°
2026-05-05 16:57 40.84258 -3.29228 12689 ft 369 kts 21°
2026-05-05 16:58 40.86634 -3.27882 13240 ft 373 kts 21°
2026-05-05 16:58 40.89038 -3.26551 13776 ft 377 kts 20°
2026-05-05 16:58 40.91499 -3.25190 14266 ft 380 kts 20°
2026-05-05 16:58 40.93945 -3.23823 14767 ft 383 kts 20°
2026-05-05 16:59 40.96377 -3.22447 15236 ft 386 kts 20°
2026-05-05 16:59 40.98856 -3.21029 15739 ft 390 kts 20°
2026-05-05 16:59 41.01361 -3.19588 16210 ft 393 kts 20°
2026-05-05 16:59 41.03873 -3.18138 16724 ft 396 kts 20°
2026-05-05 17:00 41.06415 -3.16667 17239 ft 399 kts 20°
2026-05-05 17:00 41.08968 -3.15189 17729 ft 403 kts 20°
2026-05-05 17:00 41.11545 -3.13697 18206 ft 406 kts 20°
2026-05-05 17:00 41.14139 -3.12193 18641 ft 408 kts 20°
2026-05-05 17:01 41.16755 -3.10679 19051 ft 411 kts 20°
2026-05-05 17:01 41.19388 -3.09152 19468 ft 414 kts 20°
2026-05-05 17:01 41.22036 -3.07616 19892 ft 416 kts 20°
2026-05-05 17:01 41.24664 -3.06089 20297 ft 419 kts 20°
2026-05-05 17:02 41.27336 -3.04534 20750 ft 421 kts 20°
2026-05-05 17:02 41.30029 -3.02966 21143 ft 424 kts 20°
2026-05-05 17:02 41.32741 -3.01386 21575 ft 426 kts 20°
2026-05-05 17:02 41.35468 -2.99797 21982 ft 428 kts 20°
2026-05-05 17:03 41.38205 -2.98199 22408 ft 431 kts 20°
2026-05-05 17:03 41.40962 -2.96587 22818 ft 433 kts 20°
2026-05-05 17:03 41.43726 -2.94972 23213 ft 435 kts 20°
2026-05-05 17:03 41.46503 -2.93346 23596 ft 438 kts 20°
2026-05-05 17:04 41.49305 -2.91704 23875 ft 440 kts 20°
2026-05-05 17:04 41.52106 -2.90061 23969 ft 440 kts 20°
2026-05-05 17:04 41.54910 -2.88415 23968 ft 441 kts 20°
2026-05-05 17:04 41.57726 -2.86761 23968 ft 441 kts 20°
2026-05-05 17:05 41.60532 -2.85110 23970 ft 442 kts 20°
2026-05-05 17:05 41.63309 -2.83475 23969 ft 442 kts 20°
2026-05-05 17:05 41.66126 -2.81815 23959 ft 441 kts 20°
2026-05-05 17:05 41.68932 -2.80159 23963 ft 442 kts 20°
2026-05-05 17:06 41.71744 -2.78499 23965 ft 441 kts 21°
2026-05-05 17:06 41.74553 -2.76840 23963 ft 441 kts 21°
2026-05-05 17:06 41.77369 -2.75174 23966 ft 441 kts 21°
2026-05-05 17:06 41.80172 -2.73514 23968 ft 441 kts 21°
2026-05-05 17:07 41.82980 -2.71850 23967 ft 441 kts 21°
2026-05-05 17:07 41.85790 -2.70183 23974 ft 441 kts 21°
2026-05-05 17:07 41.88596 -2.68517 23972 ft 441 kts 21°
2026-05-05 17:07 41.91409 -2.66845 23973 ft 441 kts 21°
2026-05-05 17:08 41.94213 -2.65178 23973 ft 441 kts 21°
2026-05-05 17:08 41.97016 -2.63509 23974 ft 441 kts 21°
2026-05-05 17:08 41.99817 -2.61839 23980 ft 440 kts 21°
2026-05-05 17:08 42.02623 -2.60166 23976 ft 440 kts 21°
2026-05-05 17:09 42.05419 -2.58497 23980 ft 440 kts 21°
2026-05-05 17:09 42.08187 -2.56842 23981 ft 440 kts 21°
2026-05-05 17:09 42.10070 -2.55714 23984 ft 440 kts 21°
2026-05-05 17:09 42.13780 -2.53492 23981 ft 440 kts 21°
2026-05-05 17:10 42.15667 -2.52360 23990 ft 440 kts 21°
2026-05-05 17:10 42.18466 -2.50679 23989 ft 439 kts 21°
2026-05-05 17:10 42.21227 -2.49021 23989 ft 439 kts 21°
2026-05-05 17:10 42.24013 -2.47345 23989 ft 439 kts 21°
2026-05-05 17:11 42.26807 -2.45664 23988 ft 439 kts 21°
2026-05-05 17:11 42.29601 -2.43981 23975 ft 439 kts 21°
2026-05-05 17:11 42.32388 -2.42301 23991 ft 439 kts 21°
2026-05-05 17:11 42.35178 -2.40619 23980 ft 438 kts 21°
2026-05-05 17:12 42.37962 -2.38938 23990 ft 438 kts 21°
2026-05-05 17:12 42.40745 -2.37255 23985 ft 438 kts 21°
2026-05-05 17:12 42.43534 -2.35567 23992 ft 438 kts 21°
2026-05-05 17:12 42.46320 -2.33879 23985 ft 438 kts 21°
2026-05-05 17:13 42.49099 -2.32193 23983 ft 438 kts 21°
2026-05-05 17:13 42.51887 -2.30501 23981 ft 438 kts 21°
2026-05-05 17:13 42.54667 -2.28811 23980 ft 438 kts 21°
2026-05-05 17:13 42.57453 -2.27116 23984 ft 438 kts 21°
2026-05-05 17:14 42.60202 -2.25443 23980 ft 438 kts 21°
2026-05-05 17:14 42.63013 -2.23730 23978 ft 438 kts 21°
2026-05-05 17:14 42.65796 -2.22031 23977 ft 438 kts 21°
2026-05-05 17:14 42.68574 -2.20335 23987 ft 438 kts 21°
2026-05-05 17:15 42.71324 -2.18654 23987 ft 438 kts 22°
2026-05-05 17:15 42.74100 -2.16955 23981 ft 438 kts 22°
2026-05-05 17:15 42.76884 -2.15250 23981 ft 438 kts 22°
2026-05-05 17:15 42.79659 -2.13549 23989 ft 438 kts 22°
2026-05-05 17:16 42.82443 -2.11844 23992 ft 438 kts 22°
2026-05-05 17:16 42.85218 -2.10140 23996 ft 438 kts 22°
2026-05-05 17:16 42.88005 -2.08427 23989 ft 438 kts 22°
2026-05-05 17:16 42.90788 -2.06714 23993 ft 438 kts 22°
2026-05-05 17:17 42.93566 -2.05002 24000 ft 439 kts 22°
2026-05-05 17:17 42.96347 -2.03287 23998 ft 439 kts 22°
2026-05-05 17:17 42.99126 -2.01571 23999 ft 439 kts 22°
2026-05-05 17:17 43.01924 -1.99842 24000 ft 440 kts 22°
2026-05-05 17:18 43.04716 -1.98115 24007 ft 440 kts 22°
2026-05-05 17:18 43.07502 -1.96390 24001 ft 440 kts 22°
2026-05-05 17:18 43.10297 -1.94657 24014 ft 441 kts 22°
2026-05-05 17:18 43.13100 -1.92919 24018 ft 441 kts 22°
2026-05-05 17:19 43.15897 -1.91183 24011 ft 442 kts 22°
2026-05-05 17:19 43.18694 -1.89444 24016 ft 442 kts 22°
2026-05-05 17:19 43.21493 -1.87703 24020 ft 442 kts 23°
2026-05-05 17:19 43.24300 -1.85954 24019 ft 443 kts 23°
2026-05-05 17:20 43.27112 -1.84200 24028 ft 443 kts 23°
2026-05-05 17:20 43.29915 -1.82450 24025 ft 444 kts 23°
2026-05-05 17:20 43.32691 -1.80715 24023 ft 444 kts 23°
2026-05-05 17:20 43.35498 -1.78959 24023 ft 444 kts 23°
2026-05-05 17:21 43.38311 -1.77198 24020 ft 445 kts 23°
2026-05-05 17:21 43.41134 -1.75429 24021 ft 445 kts 23°
2026-05-05 17:21 43.43957 -1.73658 24159 ft 448 kts 23°
2026-05-05 17:22 43.49651 -1.70080 24913 ft 451 kts 23°
2026-05-05 17:22 43.52510 -1.68281 25281 ft 453 kts 23°
2026-05-05 17:22 43.55389 -1.66468 25653 ft 455 kts 24°
2026-05-05 17:22 43.58275 -1.64648 26041 ft 457 kts 24°
2026-05-05 17:23 43.61173 -1.62819 26423 ft 460 kts 24°
2026-05-05 17:23 43.64091 -1.60975 26810 ft 462 kts 24°
2026-05-05 17:23 43.67025 -1.59119 27208 ft 465 kts 24°
2026-05-05 17:23 43.69980 -1.57248 27609 ft 469 kts 24°
2026-05-05 17:24 43.72963 -1.55357 28029 ft 472 kts 24°
2026-05-05 17:24 43.75912 -1.53484 28454 ft 475 kts 24°
2026-05-05 17:24 43.78962 -1.51546 28872 ft 478 kts 25°
2026-05-05 17:24 43.81955 -1.49642 29270 ft 482 kts 25°
2026-05-05 17:25 43.85052 -1.47670 29697 ft 485 kts 25°
2026-05-05 17:25 43.87090 -1.46371 29975 ft 488 kts 25°
2026-05-05 17:25 43.91041 -1.43849 30414 ft 492 kts 25°
2026-05-05 17:25 43.94137 -1.41870 30760 ft 496 kts 25°
2026-05-05 17:26 43.97272 -1.39864 31138 ft 498 kts 25°
2026-05-05 17:26 44.00435 -1.37839 31492 ft 501 kts 25°
2026-05-05 17:26 44.03612 -1.35801 31832 ft 504 kts 25°
2026-05-05 17:26 44.06808 -1.33750 32163 ft 507 kts 25°
2026-05-05 17:27 44.10007 -1.31693 32502 ft 509 kts 25°
2026-05-05 17:27 44.13235 -1.29615 32817 ft 511 kts 25°
2026-05-05 17:27 44.16471 -1.27530 33127 ft 514 kts 25°
2026-05-05 17:27 44.19720 -1.25434 33427 ft 516 kts 25°
2026-05-05 17:28 44.22990 -1.23322 33757 ft 518 kts 24°
2026-05-05 17:28 44.26258 -1.21209 33941 ft 517 kts 24°
2026-05-05 17:28 44.29495 -1.19113 33970 ft 509 kts 24°
2026-05-05 17:29 44.35888 -1.14966 33968 ft 505 kts 24°
2026-05-05 17:29 44.42220 -1.10848 33966 ft 505 kts 25°
2026-05-05 17:30 44.48592 -1.06698 33962 ft 504 kts 25°
2026-05-05 17:30 44.54943 -1.02549 33965 ft 504 kts 25°
2026-05-05 17:31 44.60676 -0.98794 33958 ft 503 kts 25°
2026-05-05 17:31 44.67013 -0.94632 33942 ft 503 kts 25°
2026-05-05 17:32 44.73357 -0.90457 33942 ft 503 kts 25°
2026-05-05 17:32 44.79707 -0.86269 33938 ft 503 kts 25°
2026-05-05 17:33 44.86049 -0.82078 33941 ft 503 kts 25°
2026-05-05 17:33 44.92396 -0.77869 33938 ft 503 kts 25°
2026-05-05 17:34 44.98689 -0.73687 33939 ft 503 kts 26°
2026-05-05 17:34 45.04977 -0.69486 33944 ft 495 kts 25°
2026-05-05 17:35 45.11185 -0.65348 33928 ft 493 kts 25°
2026-05-05 17:35 45.17397 -0.61197 33928 ft 493 kts 26°
2026-05-05 17:36 45.23603 -0.57034 33928 ft 493 kts 26°
2026-05-05 17:36 45.29801 -0.52862 33924 ft 493 kts 26°
2026-05-05 17:37 45.36003 -0.48678 33918 ft 493 kts 26°
2026-05-05 17:37 45.42199 -0.44489 33912 ft 493 kts 26°
2026-05-05 17:38 45.48398 -0.40289 33915 ft 493 kts 26°
2026-05-05 17:38 45.54554 -0.36111 33906 ft 493 kts 26°
2026-05-05 17:39 45.60756 -0.31889 33910 ft 493 kts 26°
2026-05-05 17:39 45.66945 -0.27664 33900 ft 493 kts 26°
2026-05-05 17:40 45.73132 -0.23429 33904 ft 493 kts 26°
2026-05-05 17:40 45.79310 -0.19193 33900 ft 493 kts 26°
2026-05-05 17:41 45.85498 -0.14937 33901 ft 493 kts 26°
2026-05-05 17:41 45.91683 -0.10674 33898 ft 493 kts 26°
2026-05-05 17:42 45.97865 -0.06405 33888 ft 493 kts 26°
2026-05-05 17:42 46.04002 -0.02154 33885 ft 492 kts 26°
2026-05-05 17:43 46.10171 0.02124 33880 ft 492 kts 26°
2026-05-05 17:43 46.16333 0.06418 33882 ft 492 kts 26°
2026-05-05 17:44 46.22497 0.10723 33877 ft 491 kts 26°
2026-05-05 17:44 46.28643 0.15026 33876 ft 490 kts 27°
2026-05-05 17:45 46.34778 0.19325 33879 ft 490 kts 27°
2026-05-05 17:45 46.40921 0.23644 33873 ft 490 kts 27°
2026-05-05 17:46 46.47050 0.27954 33880 ft 490 kts 27°
2026-05-05 17:46 46.53175 0.32282 33885 ft 490 kts 27°
2026-05-05 17:47 46.59301 0.36631 33883 ft 489 kts 27°
2026-05-05 17:47 46.65411 0.40973 33883 ft 489 kts 27°
2026-05-05 17:48 46.71482 0.45293 33877 ft 488 kts 27°
2026-05-05 17:48 46.77576 0.49649 33869 ft 487 kts 27°
2026-05-05 17:49 46.83665 0.54009 33860 ft 487 kts 27°
2026-05-05 17:49 46.89760 0.58364 33856 ft 487 kts 27°
2026-05-05 17:50 46.95838 0.62738 33853 ft 486 kts 27°
2026-05-05 17:50 47.01931 0.67035 33850 ft 487 kts 24°
2026-05-05 17:51 47.08437 0.69545 33850 ft 488 kts
2026-05-05 17:51 47.15207 0.70542 33851 ft 489 kts
2026-05-05 17:52 47.22035 0.71137 33851 ft 488 kts
2026-05-05 17:52 47.28824 0.71713 33848 ft 487 kts
2026-05-05 17:53 47.35579 0.72369 33851 ft 486 kts
2026-05-05 17:53 47.42329 0.73073 33853 ft 485 kts
2026-05-05 17:54 47.49028 0.74037 33849 ft 483 kts 12°
2026-05-05 17:54 47.55441 0.76650 33849 ft 481 kts 18°
2026-05-05 17:55 47.61793 0.79714 33848 ft 480 kts 19°
2026-05-05 17:55 47.68122 0.82877 33850 ft 479 kts 20°
2026-05-05 17:56 47.74441 0.86044 33850 ft 479 kts 20°
2026-05-05 17:56 47.80757 0.89194 33848 ft 479 kts 20°
2026-05-05 17:57 47.86008 0.91811 33847 ft 478 kts 20°
2026-05-05 17:57 47.93340 0.95494 33850 ft 478 kts 20°
2026-05-05 17:58 47.98613 0.98162 33850 ft 477 kts 20°
2026-05-05 17:58 48.04904 1.01356 33849 ft 477 kts 20°
2026-05-05 17:59 48.11151 1.04536 33849 ft 477 kts 20°
2026-05-05 17:59 48.17468 1.07758 33850 ft 476 kts 20°
2026-05-05 18:00 48.23697 1.10939 33842 ft 476 kts 20°
2026-05-05 18:00 48.29968 1.14136 33846 ft 475 kts 20°
2026-05-05 18:01 48.36235 1.17335 33847 ft 475 kts 21°
2026-05-05 18:01 48.42498 1.20541 33846 ft 475 kts 21°
2026-05-05 18:02 48.48746 1.23751 33839 ft 475 kts 21°
2026-05-05 18:02 48.55028 1.26987 33836 ft 475 kts 21°
2026-05-05 18:03 48.61295 1.30180 33851 ft 476 kts 21°
2026-05-05 18:03 48.67569 1.33367 33834 ft 475 kts 21°
2026-05-05 18:04 48.73838 1.36544 33834 ft 475 kts 21°
2026-05-05 18:04 48.80102 1.39720 33841 ft 474 kts 21°
2026-05-05 18:05 48.86361 1.42900 33840 ft 474 kts 21°
2026-05-05 18:05 48.92568 1.46093 33833 ft 473 kts 23°
2026-05-05 18:06 48.98302 1.50803 33833 ft 467 kts 39°
2026-05-05 18:06 49.02956 1.57610 33832 ft 464 kts 49°
2026-05-05 18:07 49.07260 1.64939 33836 ft 464 kts 51°
2026-05-05 18:07 49.11504 1.72349 33833 ft 464 kts 51°
2026-05-05 18:08 49.15766 1.79789 33832 ft 464 kts 51°
2026-05-05 18:08 49.20029 1.87216 33831 ft 465 kts 51°
2026-05-05 18:09 49.24275 1.94592 33832 ft 465 kts 51°
2026-05-05 18:09 49.28587 2.02083 33850 ft 466 kts 51°
2026-05-05 18:10 49.32836 2.09483 33851 ft 466 kts 51°
2026-05-05 18:10 49.37107 2.16945 33856 ft 466 kts 51°
2026-05-05 18:11 49.41379 2.24429 33856 ft 466 kts 51°
2026-05-05 18:11 49.45650 2.31936 33852 ft 467 kts 52°
2026-05-05 18:12 49.49915 2.39456 33849 ft 467 kts 52°
2026-05-05 18:12 49.54257 2.46909 33845 ft 470 kts 47°
2026-05-05 18:13 49.59476 2.53068 33844 ft 475 kts 37°
2026-05-05 18:13 49.65045 2.58561 33842 ft 476 kts 35°
2026-05-05 18:14 49.70686 2.63933 33845 ft 476 kts 34°
2026-05-05 18:14 49.76315 2.69328 33846 ft 476 kts 35°
2026-05-05 18:15 49.81926 2.74772 33854 ft 476 kts 35°
2026-05-05 18:15 49.87532 2.80255 33855 ft 477 kts 35°
2026-05-05 18:16 49.93141 2.85763 33854 ft 477 kts 35°
2026-05-05 18:16 49.98715 2.91247 33853 ft 477 kts 35°
2026-05-05 18:17 50.04323 2.96776 33849 ft 477 kts 36°
2026-05-05 18:17 50.09935 3.02324 33848 ft 477 kts 36°
2026-05-05 18:18 50.15542 3.07887 33846 ft 478 kts 36°
2026-05-05 18:18 50.21156 3.13461 33845 ft 479 kts 34°
2026-05-05 18:19 50.27128 3.18186 33848 ft 482 kts 28°
2026-05-05 18:19 50.33247 3.22521 33852 ft 483 kts 27°
2026-05-05 18:20 50.39402 3.26805 33852 ft 484 kts 27°
2026-05-05 18:20 50.45486 3.31296 33852 ft 484 kts 28°
2026-05-05 18:21 50.51518 3.36018 33856 ft 484 kts 29°
2026-05-05 18:21 50.57587 3.40516 33851 ft 486 kts 27°
2026-05-05 18:22 50.63768 3.44855 33854 ft 487 kts 26°
2026-05-05 18:22 50.69983 3.49152 33856 ft 488 kts 26°
2026-05-05 18:23 50.76194 3.53467 33866 ft 488 kts 26°
2026-05-05 18:23 50.82405 3.57832 33864 ft 489 kts 26°
2026-05-05 18:24 50.88621 3.62231 33862 ft 489 kts 26°
2026-05-05 18:24 50.94848 3.66653 33862 ft 490 kts 26°
2026-05-05 18:25 51.01071 3.71085 33863 ft 491 kts 26°
2026-05-05 18:25 51.07268 3.75508 33860 ft 491 kts 26°
2026-05-05 18:26 51.13517 3.79984 33864 ft 492 kts 26°
2026-05-05 18:26 51.19757 3.84465 33863 ft 493 kts 26°
2026-05-05 18:27 51.26008 3.88967 33867 ft 493 kts 26°
2026-05-05 18:27 51.32266 3.93489 33874 ft 494 kts 26°
2026-05-05 18:28 51.41661 4.00303 33878 ft 494 kts 26°
2026-05-05 18:28 51.47821 4.05202 33878 ft 493 kts 34°
2026-05-05 18:29 51.53266 4.11851 33880 ft 492 kts 41°
2026-05-05 18:29 51.58494 4.18945 33882 ft 492 kts 43°
2026-05-05 18:30 51.63674 4.26141 33880 ft 492 kts 43°
2026-05-05 18:30 51.68853 4.33335 33879 ft 492 kts 43°
2026-05-05 18:31 51.74049 4.40536 33876 ft 493 kts 43°
2026-05-05 18:31 51.79246 4.47748 33883 ft 493 kts 43°
2026-05-05 18:32 51.84419 4.54946 33881 ft 493 kts 43°
2026-05-05 18:32 51.89617 4.62207 33884 ft 494 kts 43°
2026-05-05 18:33 51.94819 4.69498 33882 ft 495 kts 43°
2026-05-05 18:33 51.99931 4.76686 33886 ft 496 kts 43°
2026-05-05 18:34 52.05133 4.84029 33886 ft 496 kts 44°
2026-05-05 18:34 52.10173 4.91704 33898 ft 496 kts 46°
2026-05-05 18:35 52.15084 4.99599 33902 ft 496 kts 47°
2026-05-05 18:35 52.19968 5.07561 33902 ft 498 kts 47°
2026-05-05 18:36 52.24885 5.15553 33901 ft 499 kts 47°
2026-05-05 18:36 52.29802 5.23551 33902 ft 500 kts 47°
2026-05-05 18:37 52.34731 5.31590 33907 ft 501 kts 47°
2026-05-05 18:37 52.39671 5.39673 33910 ft 502 kts 47°
2026-05-05 18:38 52.44606 5.47775 33912 ft 503 kts 47°
2026-05-05 18:38 52.49549 5.55917 33912 ft 503 kts 47°
2026-05-05 18:39 52.54497 5.64095 33911 ft 504 kts 47°
2026-05-05 18:39 52.59439 5.72295 33910 ft 505 kts 47°
2026-05-05 18:40 52.64382 5.80526 33907 ft 506 kts 47°
2026-05-05 18:40 52.68503 5.87405 33910 ft 507 kts 47°
2026-05-05 18:41 52.74258 5.97042 33911 ft 508 kts 47°
2026-05-05 18:41 52.79215 6.05371 33913 ft 509 kts 47°
2026-05-05 18:42 52.83368 6.12373 33913 ft 510 kts 47°
2026-05-05 18:42 52.88337 6.20784 33910 ft 510 kts 47°
2026-05-05 18:43 52.93291 6.29204 33914 ft 511 kts 47°
2026-05-05 18:43 52.98251 6.37662 33914 ft 511 kts 47°
2026-05-05 18:44 53.03166 6.46087 33913 ft 512 kts 47°
2026-05-05 18:44 53.08124 6.54606 33914 ft 513 kts 47°
2026-05-05 18:45 53.13117 6.63207 33909 ft 513 kts 47°
2026-05-05 18:45 53.18065 6.71758 33916 ft 522 kts 47°
2026-05-05 18:46 53.23182 6.80634 33937 ft 537 kts 47°
2026-05-05 18:46 53.25776 6.85144 34247 ft 536 kts 47°
2026-05-05 18:46 53.28352 6.89632 34648 ft 534 kts 47°
2026-05-05 18:47 53.30923 6.94120 34875 ft 536 kts 46°
2026-05-05 18:47 53.33501 6.98627 34912 ft 535 kts 46°
2026-05-05 18:47 53.38636 7.07632 34912 ft 535 kts 46°
2026-05-05 18:48 53.43775 7.16679 34911 ft 536 kts 46°
2026-05-05 18:48 53.48915 7.25760 34912 ft 536 kts 46°
2026-05-05 18:49 53.54041 7.34850 34911 ft 536 kts 46°
2026-05-05 18:49 53.59156 7.43956 34912 ft 537 kts 46°
2026-05-05 18:50 53.64294 7.53138 34912 ft 537 kts 46°
2026-05-05 18:50 53.69423 7.62339 34914 ft 538 kts 46°
2026-05-05 18:51 53.74541 7.71555 34913 ft 538 kts 46°
2026-05-05 18:51 53.79657 7.80803 34916 ft 538 kts 46°
2026-05-05 18:52 53.84769 7.90079 34913 ft 539 kts 46°
2026-05-05 18:52 53.89876 7.99381 34917 ft 540 kts 46°
2026-05-05 18:53 53.94959 8.08674 34918 ft 540 kts 46°
2026-05-05 18:53 54.00063 8.18044 34918 ft 541 kts 46°
2026-05-05 18:54 54.05165 8.27446 34922 ft 541 kts 46°
2026-05-05 18:54 54.10276 8.36901 34923 ft 542 kts 46°
2026-05-05 18:55 54.15377 8.46375 34923 ft 543 kts 46°
2026-05-05 18:55 54.20479 8.55888 34924 ft 543 kts 46°
2026-05-05 18:56 54.25582 8.65440 34924 ft 544 kts 46°
2026-05-05 18:56 54.30681 8.75021 34918 ft 544 kts 46°
2026-05-05 18:57 54.35736 8.84559 34919 ft 545 kts 46°
2026-05-05 18:57 54.40861 8.94268 34914 ft 545 kts 46°
2026-05-05 18:58 54.45909 9.03868 34918 ft 546 kts 46°
2026-05-05 18:58 54.50996 9.13581 34913 ft 546 kts 46°
2026-05-05 18:59 54.56111 9.23388 34912 ft 547 kts 46°
2026-05-05 18:59 54.61173 9.33132 34912 ft 546 kts 46°
2026-05-05 19:00 54.66243 9.42930 34914 ft 546 kts 46°
2026-05-05 19:00 54.71262 9.52672 34912 ft 546 kts 46°
2026-05-05 19:01 54.76315 9.62518 34702 ft 547 kts 46°
2026-05-05 19:01 54.78839 9.67450 34469 ft 547 kts 46°
2026-05-05 19:01 54.81366 9.72399 34235 ft 548 kts 46°
2026-05-05 19:02 54.83888 9.77347 33993 ft 549 kts 46°
2026-05-05 19:02 54.86410 9.82307 33743 ft 549 kts 46°
2026-05-05 19:02 54.88943 9.87297 33461 ft 549 kts 46°
2026-05-05 19:02 54.91462 9.92271 33182 ft 549 kts 46°
2026-05-05 19:03 54.93977 9.97247 32947 ft 549 kts 46°
2026-05-05 19:03 54.96505 10.02260 32667 ft 550 kts 46°
2026-05-05 19:03 54.99028 10.07274 32394 ft 550 kts 46°
2026-05-05 19:03 55.01547 10.12289 32129 ft 551 kts 46°
2026-05-05 19:04 55.04070 10.17321 31955 ft 552 kts 46°
2026-05-05 19:04 55.06599 10.22377 31932 ft 552 kts 46°
2026-05-05 19:04 55.11631 10.32469 31919 ft 551 kts 46°
2026-05-05 19:05 55.16661 10.42599 31939 ft 550 kts 47°
2026-05-05 19:05 55.21671 10.52733 31925 ft 549 kts 47°
2026-05-05 19:06 55.26592 10.62953 31929 ft 550 kts 53°
2026-05-05 19:06 55.28441 10.68807 31934 ft 552 kts 67°
2026-05-05 19:06 55.29646 10.75226 31939 ft 551 kts 74°
2026-05-05 19:07 55.31693 10.88099 31931 ft 551 kts 74°
2026-05-05 19:07 55.33805 11.01028 31900 ft 549 kts 74°
2026-05-05 19:08 55.34854 11.07419 31272 ft 541 kts 74°
2026-05-05 19:08 55.35904 11.13803 30131 ft 544 kts 74°
2026-05-05 19:08 55.36928 11.20030 29185 ft 518 kts 74°
2026-05-05 19:08 55.37906 11.25990 28147 ft 499 kts 74°
2026-05-05 19:09 55.38850 11.31755 27242 ft 480 kts 73°
2026-05-05 19:09 55.39750 11.37268 26625 ft 464 kts 73°
2026-05-05 19:09 55.40630 11.42667 26271 ft 440 kts 73°
2026-05-05 19:09 55.41438 11.47645 25815 ft 420 kts 73°
2026-05-05 19:10 55.42235 11.52563 24779 ft 418 kts 73°
2026-05-05 19:10 55.43030 11.57488 23781 ft 417 kts 73°
2026-05-05 19:10 55.43855 11.62328 22752 ft 410 kts 67°
2026-05-05 19:10 55.45206 11.66687 21820 ft 400 kts 54°
2026-05-05 19:11 55.46745 11.70657 21114 ft 386 kts 52°
2026-05-05 19:11 55.48258 11.74498 20322 ft 377 kts 52°
2026-05-05 19:11 55.49740 11.78275 19513 ft 371 kts 53°
2026-05-05 19:11 55.51187 11.81988 18716 ft 365 kts 53°
2026-05-05 19:12 55.52608 11.85653 17896 ft 359 kts 53°
2026-05-05 19:12 55.53998 11.89267 17018 ft 353 kts 53°
2026-05-05 19:12 55.55364 11.92837 16163 ft 347 kts 54°
2026-05-05 19:12 55.56707 11.96356 15334 ft 342 kts 54°
2026-05-05 19:13 55.58023 11.99808 14530 ft 336 kts 54°
2026-05-05 19:13 55.59318 12.03213 13748 ft 331 kts 54°
2026-05-05 19:13 55.60579 12.06530 12899 ft 326 kts 54°
2026-05-05 19:13 55.61864 12.09779 12024 ft 318 kts 48°
2026-05-05 19:14 55.63406 12.12511 11226 ft 310 kts 39°
2026-05-05 19:14 55.65025 12.14978 10444 ft 304 kts 38°
2026-05-05 19:14 55.66628 12.17382 9663 ft 299 kts 38°
2026-05-05 19:14 55.68014 12.20085 8783 ft 296 kts 57°
2026-05-05 19:15 55.68626 12.23509 7990 ft 291 kts 86°
2026-05-05 19:15 55.68275 12.26955 7199 ft 284 kts 114°
2026-05-05 19:15 55.67126 12.29724 6470 ft 278 kts 136°
2026-05-05 19:15 55.65666 12.31819 5980 ft 263 kts 146°
2026-05-05 19:16 55.64025 12.33150 5437 ft 262 kts 165°
2026-05-05 19:16 55.62209 12.33217 5089 ft 265 kts 192°
2026-05-05 19:16 55.60456 12.32214 4872 ft 265 kts 201°
2026-05-05 19:16 55.58752 12.30981 4779 ft 260 kts 202°
2026-05-05 19:17 55.57145 12.29797 4605 ft 244 kts 202°
2026-05-05 19:17 55.55576 12.28646 4463 ft 245 kts 202°
2026-05-05 19:17 55.54012 12.27498 4372 ft 243 kts 202°
2026-05-05 19:17 55.52456 12.26356 4195 ft 242 kts 202°
2026-05-05 19:18 55.50890 12.25233 3955 ft 241 kts 199°
2026-05-05 19:18 55.49251 12.24885 3670 ft 238 kts 171°
2026-05-05 19:18 55.47733 12.25925 3298 ft 235 kts 144°
2026-05-05 19:18 55.46492 12.27695 3020 ft 220 kts 136°
2026-05-05 19:19 55.45416 12.29518 2979 ft 212 kts 127°
2026-05-05 19:19 55.44834 12.31831 2989 ft 205 kts 94°
2026-05-05 19:19 55.44922 12.34267 2996 ft 202 kts 78°
2026-05-05 19:19 55.45213 12.36703 3020 ft 199 kts 75°
2026-05-05 19:20 55.45519 12.39066 2999 ft 201 kts 75°
2026-05-05 19:20 55.45832 12.41468 2990 ft 201 kts 75°
2026-05-05 19:20 55.46142 12.43873 2993 ft 202 kts 75°
2026-05-05 19:20 55.46534 12.46245 2928 ft 201 kts 63°
2026-05-05 19:21 55.47469 12.48042 2529 ft 201 kts 30°
2026-05-05 19:21 55.48804 12.48590 2161 ft 200 kts 358°
2026-05-05 19:21 55.50142 12.48105 2001 ft 194 kts 346°
2026-05-05 19:21 55.51447 12.47578 1976 ft 193 kts
2026-05-05 19:22 55.52670 12.48447 1940 ft 194 kts 41°
2026-05-05 19:22 55.53489 12.50335 1704 ft 192 kts 53°
2026-05-05 19:22 55.54242 12.52171 1420 ft 177 kts 50°
2026-05-05 19:22 55.55036 12.53782 1190 ft 173 kts 44°
2026-05-05 19:23 55.55898 12.55202 934 ft 161 kts 40°
2026-05-05 19:23 55.56679 12.56424 731 ft 143 kts 39°
2026-05-05 19:23 55.57078 12.57043 631 ft 139 kts 39°
2026-05-05 19:23 55.57945 12.58372 391 ft 139 kts 38°
2026-05-05 19:24 55.58677 12.59509 218 ft 141 kts 38°
2026-05-05 19:24 55.59398 12.60619 46 ft 132 kts 38°
2026-05-05 19:24 55.60012 12.61573 28 ft 88 kts 41°
2026-05-05 19:24 55.60277 12.61987 27 ft 34 kts 41°
2026-05-05 19:25 55.60458 12.62241 29 ft 31 kts 32°
2026-05-05 19:25 55.60570 12.62321 32 ft 21 kts 15°
2026-05-05 19:25 55.60712 12.62372 33 ft 22 kts 16°